EUTELSAT 117 WEST B (41589 NORAD) Tracking and Keplerian Element Data

This shows tracking and keplerian element data for the satellite.

Feedback or suggestion? Click here.




ElementValue
Catalog41589
NameEUTELSAT 117 WEST B
Epoch Orbit1051
Epoch Day113.64351208
Epoch Year2019
RAAN48.2078
Inclination0.0085
Eccentricity3.92E-05
Argument of Perigee205.2615
Mean Anonmoly72.6073
Mean Motion1.00271259
Decay Rate-2.7E-07
L11 41589U 16038B 19113.64351208 -.00000027 00000-0 00000+0 0 9998
L22 41589 0.0085 48.2078 0000392 205.2615 72.6073 1.00271259 10515

Live tracking and technical data element details for EUTELSAT 117 WEST B (NORAD 41589). EUTELSAT 117 WEST B can be tracked NOW for your location showing map with azimuth and elevation plus other details from your city location.

Track the satellite on the map from your city or location and see movement details for azimuth, elevation, latitude, longitude, range, height, and movement on the map or in text.







IsCatalogInMostPopularTable: catalog: 41589, numindb: 223
Update: records affected: 1



GetName: 41589 EUTELSAT 117 WEST B

Hit Count: updated at: Wed, 24 Apr 2019 18:10:21 GMT